Lid_Strength_Index
-0 -0 -0 -0 -0 0 0 1 1 2 3 4 5 5 5 5 7 10 12 11 12 16 16 15 14 16 16 17 19 18 20 20 22 26 24 24 24 23 25 24 24 25 29 30 29 31 26 16 15 19 14 10 9 9
0 0 -0 -0 -0 -0 0 1 2 2 3 4 4 5 5 5 6 8 13 11 10 14 15 14 14 14 15 15 17 19 19 19 20 22 23 23 24 24 24 27 23 26 23 25 23 22 17 15 14 12 10 9 8 8
1 1 1 0 0 -0 0 1 2 3 3 4 4 5 5 6 7 9 13 12 13 15 16 16 16 14 14 15 14 18 19 18 18 19 22 24 26 24 27 25 25 22 19 21 20 18 17 14 13 10 8 8 7 7
1 1 1 1 1 0 0 1 2 3 3 4 5 5 5 6 7 9 12 12 12 15 19 18 14 15 14 14 14 14 15 15 17 20 25 27 25 22 25 23 23 21 20 20 20 17 15 14 12 10 8 7 7 7
1 1 1 1 1 1 0 1 2 3 4 5 5 5 6 7 8 10 11 12 12 13 20 19 16 15 15 14 14 14 15 18 22 22 25 26 22 23 23 22 23 19 19 20 21 16 17 16 13 10 8 7 7 8
1 1 1 1 1 1 1 2 3 3 4 5 5 6 6 6 8 12 14 12 11 13 17 20 17 16 15 15 15 15 16 19 21 21 23 21 20 22 27 25 19 16 15 15 17 15 14 13 12 9 8 7 7 7
1 1 1 2 2 2 2 2 3 4 5 5 6 6 7 8 10 12 13 12 9 11 17 21 21 17 16 16 17 18 18 21 20 23 21 21 20 21 26 23 18 16 15 15 15 14 15 13 12 9 7 6 7 7
1 1 1 2 2 2 2 3 4 4 5 5 7 7 8 8 10 13 11 9 9 13 14 20 23 19 16 20 21 18 21 22 21 22 21 21 21 22 26 18 16 15 15 15 14 14 13 12 11 9 7 7 8 8
1 1 1 2 2 2 3 4 5 5 6 7 7 7 10 12 14 14 9 9 10 12 18 21 22 21 16 19 20 20 20 25 21 23 21 21 24 26 20 18 17 15 15 14 14 13 12 12 11 9 8 8 9 8
1 1 1 2 2 3 4 5 5 6 7 7 10 12 15 13 9 10 12 15 15 16 17 19 17 19 17 18 21 22 23 24 26 22 20 25 22 18 16 15 14 14 14 13 14 14 13 12 10 8 8 8 8 8
1 2 2 3 3 4 5 6 6 7 8 12 14 16 13 10 12 14 18 20 22 22 21 18 18 19 16 19 19 21 25 28 28 22 24 24 23 18 15 15 14 14 13 13 13 12 10 8 9 8 8 8 8 8
2 2 2 3 4 5 6 7 7 10 11 12 13 12 13 14 16 18 22 24 21 22 20 19 18 17 17 16 19 22 24 24 26 20 24 23 20 16 15 14 14 13 13 13 12 11 10 8 8 8 8 8 8 8
2 2 3 4 5 6 7 7 8 9 10 11 13 16 16 18 21 23 26 25 21 19 19 18 20 17 17 17 20 22 26 25 20 24 23 21 17 15 15 14 13 13 13 13 12 10 9 8 7 8 8 8 8 8
2 3 4 5 6 7 7 8 9 9 12 16 18 21 20 24 23 22 22 21 19 19 18 18 18 18 18 20 21 26 24 21 25 25 22 19 17 15 14 13 13 13 13 12 12 10 9 9 9 8 8 8 8 8
3 5 6 6 7 8 8 9 9 12 16 18 18 22 22 20 20 20 19 19 18 17 17 18 17 18 20 22 22 22 23 26 23 21 19 17 16 15 14 14 14 14 13 12 11 10 9 8 8 8 8 8 8 8
5 6 7 7 8 8 9 11 13 14 17 19 20 22 20 20 20 19 18 19 16 17 16 17 20 22 23 22 23 22 23 23 21 18 17 16 16 15 14 14 13 13 13 12 11 9 9 8 8 8 8 7 8 8
7 10 8 8 9 11 11 15 15 18 19 20 21 18 18 19 19 19 18 17 16 17 20 20 22 22 20 23 22 19 20 18 17 16 15 14 14 14 14 13 13 12 12 11 10 9 8 7 7 7 8 8 7 7
12 11 10 11 12 13 16 16 17 19 21 19 20 19 18 18 18 18 17 16 16 17 18 20 18 22 22 22 20 18 17 17 15 14 14 14 14 13 12 13 12 11 11 10 9 8 8 8 8 8 8 8 7 8
13 12 11 11 13 16 18 18 18 21 21 19 19 18 18 18 17 16 16 16 16 15 17 19 20 20 19 17 17 17 16 15 15 14 14 14 13 13 13 12 12 11 10 10 9 8 8 8 7 7 7 7 8 8
11 11 12 12 14 17 19 19 16 19 21 20 19 19 19 19 17 16 16 16 16 18 20 21 18 17 17 17 16 15 14 14 14 15 15 14 14 13 12 12 11 11 10 9 8 5 7 7 7 6 7 7 8 9
13 13 13 15 17 17 19 20 20 19 19 20 19 18 19 18 18 17 17 16 17 18 18 16 17 15 14 14 13 13 13 13 13 13 14 14 13 12 12 10 10 10 9 8 8 7 7 8 7 7 7 7 7 8
14 13 16 15 18 18 19 18 19 18 18 18 18 17 18 18 18 17 16 17 17 16 16 15 15 14 14 13 13 12 12 12 12 12 10 10 12 11 10 9 9 9 9 8 7 7 8 8 7 7 7 7 6 7
12 14 17 18 20 19 20 15 19 17 20 19 17 19 19 18 17 15 17 16 16 14 14 14 14 13 13 12 12 12 12 12 13 12 11 11 10 10 10 9 8 8 8 7 7 7 8 5 6 6 7 7 8 8
12 17 19 19 18 20 18 19 17 17 17 19 19 20 19 18 16 17 17 16 15 15 14 14 13 13 13 13 13 12 12 11 11 11 10 10 10 9 9 8 7 7 6 7 7 7 7 7 5 6 7 7 8 9
17 19 18 20 18 19 20 20 19 18 20 18 20 20 18 16 18 18 18 16 15 15 14 14 13 13 13 13 13 12 10 9 10 10 9 8 9 9 8 7 6 6 5 6 6 6 6 6 6 6 7 8 8 8
21 21 19 19 19 18 18 20 19 18 18 19 18 17 16 17 20 19 16 15 15 14 13 12 12 12 12 11 11 10 9 8 8 9 8 7 7 7 7 7 7 6 5 5 6 6 6 6 6 6 7 7 5 8
20 20 17 15 15 16 17 16 16 17 18 20 18 18 19 22 20 16 14 13 13 12 10 9 9 10 10 10 9 9 8 7 7 7 6 6 6 6 6 6 7 6 5 5 5 5 5 5 5 6 7 7 8 8
16 15 17 16 16 16 18 18 18 18 17 16 16 19 19 17 16 13 12 11 10 9 9 8 8 8 9 9 8 7 7 7 6 6 6 7 6 6 6 6 6 3 4 5 5 5 5 5 5 6 6 7 8 8
15 15 16 19 17 16 17 16 16 15 13 14 15 16 14 12 11 11 10 10 9 8 9 9 8 8 8 8 8 7 7 7 8 9 9 9 9 7 6 6 6 5 5 5 2 3 4 5 5 6 6 6 7 7
15 13 16 17 19 17 14 14 14 13 13 13 12 11 11 11 10 9 9 9 8 8 8 8 8 8 8 8 8 8 7 7 6 8 8 9 8 6 6 6 6 6 5 5 5 4 1 3 3 6 6 7 7 7
13 14 15 15 17 14 13 12 12 11 12 12 12 11 11 10 9 9 8 8 8 9 8 9 9 8 8 9 8 8 8 7 6 6 6 7 6 6 6 6 6 5 5 5 5 5 5 5 6 6 6 7 7 7
13 15 15 18 17 14 13 13 14 13 13 13 13 13 11 11 11 10 9 9 9 9 7 8 9 8 8 7 7 7 4 7 6 5 6 5 6 6 6 6 5 5 5 5 5 5 5 5 6 6 6 6 6 7
15 14 15 16 17 17 14 14 15 16 15 15 14 11 11 11 11 9 8 8 8 7 8 7 7 8 8 7 7 7 5 6 5 3 3 3 3 4 6 6 5 5 5 5 5 5 5 5 5 6 6 6 6 6